This demonstration page uses our WeatherBlox Daily Observations layout. Learn more.

41.55636, -103.73856

Hourly Observations for December 22, 2015

Temp ( °F °C ) Dew Point ( °F °C ) Humidity (%) Winds ( mph kmh ) Pressure ( in mb ) Visibility ( mi km ) Precip ( " mm )
12:53 am 00:53 Mostly Clear 34 1 23 -5 65 65 SE 12 19 29.59 1002 10 16.09344 0 0
1:53 am 01:53 Clear 30 -1 21 -6 69 69 SE 13 20 29.53 1000 10 16.09344 0 0
2:53 am 02:53 Clear 27 -3 19 -7 74 74 ESE 9 15 29.53 1000 10 16.09344 0 0
3:53 am 03:53 Clear 27 -3 19 -7 74 74 E 9 15 29.5 999 10 16.09344 0 0
4:53 am 04:53 Clear 30 -1 21 -6 69 69 Calm 29.44 997 10 16.09344 0 0
5:53 am 05:53 Clear 36 2 21 -6 56 56 N 7 11 29.38 995 10 16.09344 0 0
6:53 am 06:53 Partly Cloudy 41 5 25 -4 53 53 NW 9 15 29.35 994 10 16.09344 0 0
7:53 am 07:53 Mostly Cloudy 41 5 27 -3 57 57 W 18 30 29.38 995 10 16.09344 0 0
8:53 am 08:53 Sunny 39 4 27 -3 61 61 W 18 30 29.38 995 10 16.09344 0 0
9:53 am 09:53 Sunny 39 4 27 -3 61 61 W 18 30 29.38 995 10 16.09344 0 0
10:53 am 10:53 Sunny 41 5 25 -4 53 53 W 13 20 29.35 994 10 16.09344 0 0
11:53 am 11:53 Sunny 41 5 25 -4 53 53 W 15 24 29.35 994 10 16.09344 0 0
12:53 pm 12:53 Sunny 43 6 23 -5 46 46 W 13 20 29.32 993 10 16.09344 0 0
1:53 pm 13:53 Partly Cloudy 43 6 23 -5 46 46 W 13 20 29.29 992 10 16.09344 0 0
2:53 pm 14:53 Sunny 41 5 23 -5 49 49 W 13 20 29.32 993 10 16.09344 0 0
3:53 pm 15:53 Sunny 37 3 27 -3 65 65 WSW 9 15 29.35 994 10 16.09344 0 0
4:53 pm 16:53 Clear 37 3 25 -4 60 60 W 10 17 29.35 994 10 16.09344 0 0
5:53 pm 17:53 Partly Cloudy 36 2 25 -4 65 65 W 8 13 29.38 995 10 16.09344 0 0
6:53 pm 18:53 Cloudy 34 1 27 -3 75 75 N 5 7 29.41 996 10 16.09344 0 0
7:53 pm 19:53 Cloudy 34 1 25 -4 70 70 Calm 29.44 997 10 16.09344 0 0
8:53 pm 20:53 Mostly Clear 32 0 25 -4 75 75 W 6 9 29.47 998 10 16.09344 0 0
9:53 pm 21:53 Clear 28 -2 23 -5 80 80 NNW 6 9 29.5 999 10 16.09344 0 0
10:53 pm 22:53 Clear 25 -4 18 -8 74 74 NNE 7 11 29.56 1001 10 16.09344 0 0
11:53 pm 23:53 Clear 23 -5 16 -9 74 74 WNW 6 9 29.56 1001 10 16.09344 0 0

Powered by AerisWeather